Location: Fouquenies
(49.4624°N, 2.0492°E)
Time: 23:18:10
(UTC+00:00)

MOS 1-B - Pass Details

Date: 03 February 2023
Orbit: 904 x 913 km, 99.4° (Epoch: 01 April)

Event Time Altitude Azimuth Distance (km) Brightness Sun altitude
Rises 18:14:44 0° 152° (SSE) 3,529 7.2 -13.9°
Reaches altitude 10° 18:17:09 10° 150° (SSE) 2,593 6.5 -14.3°
Maximum altitude 18:22:52 66° 69° (ENE) 993 4.3 -15.2°
Drops below altitude 10° 18:28:38 10° 349° (N) 2,615 6.8 -16.1°
Sets 18:31:05 0° 347° (NNW) 3,561 7.5 -16.5°
